[[{"header":{"parameterUnit":"m.s-1","parameterCategory":1,"la1":30.2991,"la2":30.254,"lo1":-89.0895,"lo2":-89.0444,"dy":0.0017,"dx":0.0017,"nx":28,"ny":28,"refTime":"2025-12-26T09:00:00:Z","depth":0,"parameterNumber":2,"parameterNumberName":"U-component_of_WINDS"},"data":[0,0,0,0,0,0,0,0,0,0,0,0,0,0,0,0,0,0,0,0,0,0,0,0,0,0,0,0,0,0,0,0,0,0,0,0,0,0,0,0,0,0,0,0,0,0,0,0,0,0,0,0,0,0,0,0,0,0,0.9915,0.9915,0,0.9972,0.9972,0.9973,0.9955,0.9954,0.9952,0.9951,1.001,1.0013,1.0016,0,0,0,0,0,0,0,0,0,0,0,0,0,0.979,0.9793,0.9915,0.9915,0.9916,0.9971,0.9972,0.9973,0.9955,0.9954,0.9952,0.9951,1.001,1.0013,1.0016,0,0,0,0,0,0,0,0,0,0,0,0,0,0.9846,0.9794,0.9914,0.9914,0.9914,0.9971,0.9972,0.9973,0.9955,0.9954,0.9952,0.995,1.0009,1.0012,1.0016,1.0078,0,0,1.0029,1.0031,0,0,0,0,0,0,0,0,0.9842,0.985,0.9913,0.9914,0.9914,0.9954,0.995,1.0008,0.9956,0.994,0.9951,0.9949,0.9993,0.9998,1.0013,1.0081,1.0083,1.0029,1.0032,1.0033,1.0035,0,0,0,0,0,0,0,0.9839,0.9848,0.9937,0.9914,0.9915,0.9911,0.9916,0.9961,0.9976,0.9941,0.994,0.9947,0.9993,1.0009,1.0014,1.0084,1.0029,1.0033,1.0035,1.0037,1.0205,1.0207,0,0,0,0,0,0,0.9834,0.9845,0.9935,0.9939,0.9873,0.9914,0.9921,0.9943,0.9976,0.9979,0.9948,0.9946,1.0003,1.001,1.0016,1.0091,1.0033,1.0037,1.004,1.0203,1.0205,1.0207,0,0,0,0,0,0,0.9832,0.9843,0.9933,0.9891,0.9903,0.9918,0.9944,0.9945,0.9961,0.9981,0.9984,0.9962,1.0002,1.0011,1.0063,1.0092,1.0039,1.0043,1.02,1.0203,1.0206,1.0239,0,0,0,0,0,0,0.9828,0.9842,0.9865,0.9892,0.9905,0.9978,0.9946,0.9948,0.9968,0.9966,0.9994,0.9998,1.0001,1.0057,1.0067,1.0097,1.0046,1.0198,1.0202,1.0205,1.0236,1.0243,1.0249,0,0,0,0,0,0.9824,0.9873,0.9867,0.9878,0.9935,0.998,0.9987,0.9991,0.9971,0.9995,1.0007,0.9997,1.0087,1.0062,1.0073,1.0105,1.0196,1.0201,1.0205,1.0232,1.0242,1.0249,0,0,0,0,0,0,0.9849,0.9876,0.987,0.9928,0.9952,0.9977,1.0007,1.0,1.003,1.0026,1.0029,1.0036,1.0089,1.0102,1.0074,1.0166,1.0139,1.0146,1.0156,1.0165,1.0171,1.0167,1.0049,0,0,0,0,0,0.9861,0.9896,0.9918,0.9967,0.998,0.9991,1.0011,1.0012,1.0036,1.0046,1.0063,1.0087,1.0121,1.0143,1.0176,1.0237,1.0243,1.0264,1.0271,1.0277,1.0283,1.0316,1.0326,1.0222,1.0222,1.0222,0,0,0.9888,0.9906,0.9928,0.9973,0.9991,1.0027,1.0,1.0039,1.0066,1.0052,1.0102,1.0115,1.0142,1.0199,1.0225,1.0212,1.0313,1.0283,1.0287,1.029,1.0322,1.0332,1.0341,1.0225,1.0225,1.0224,0,0,0.9953,0.9971,1.0014,1.0033,1.0061,1.0069,1.0079,1.0105,1.0113,1.0163,1.0153,1.0185,1.0244,1.0264,1.0281,1.0354,1.0346,1.0364,1.0401,1.0433,1.0442,1.0449,1.0475,1.0484,1.037,1.0371,1.0371,0,0.9982,1.0036,1.0038,1.0078,1.0098,1.0086,1.013,1.0149,1.0186,1.02,1.0184,1.0257,1.0275,1.0336,1.0354,1.0369,1.0381,1.0362,1.044,1.0447,1.0454,1.0479,1.0489,1.0373,1.0372,1.0372,1.0372,0,1.007,1.0107,1.0139,1.0175,1.0198,1.024,1.0248,1.0272,1.027,1.0279,1.033,1.0351,1.0387,1.0401,1.04,1.0463,1.0454,1.0439,1.0412,1.0466,1.049,1.0499,1.0376,1.0375,1.0374,1.0374,0,0,1.0154,1.019,1.0201,1.0218,1.0247,1.0276,1.0317,1.0353,1.0373,1.0399,1.0433,1.0483,1.0469,1.049,1.049,1.0519,1.0575,1.0501,1.0502,1.0514,1.0646,1.0657,1.0668,1.0569,1.0571,1.0573,1.0643,0,1.0222,1.0294,1.0297,1.0363,1.0398,1.0387,1.0423,1.0445,1.0455,1.0485,1.0496,1.0531,1.051,1.0523,1.055,1.0563,1.0602,1.0557,1.0602,1.0604,1.0596,1.068,1.0692,1.0758,1.0653,1.0654,1.0655,0,1.0312,1.034,1.041,1.0434,1.0449,1.0481,1.0513,1.0543,1.0568,1.0572,1.0595,1.0591,1.0633,1.0604,1.0662,1.0632,1.065,1.0659,1.0661,1.0666,1.0633,1.0687,1.0779,1.0789,1.067,1.0669,1.0668,0,1.0366,1.0422,1.0471,1.0485,1.0515,1.0538,1.0551,1.0574,1.0595,1.0623,1.0637,1.067,1.0688,1.0713,1.0719,1.0697,1.0777,1.0748,1.0783,1.0783,1.0801,1.0799,1.0896,1.0812,1.0811,1.0811,1.0811,0,1.0442,1.0485,1.0495,1.0526,1.0573,1.0576,1.0623,1.0635,1.0655,1.0688,1.0681,1.0711,1.0716,1.0748,1.0752,1.08,1.0808,1.0813,1.0814,1.0814,1.0813,1.0827,1.0822,1.0814,1.0813,1.0813,1.0812,0,1.0512,1.052,1.0572,1.0596,1.0603,1.0638,1.0658,1.0687,1.0695,1.0736,1.0746,1.0759,1.0796,1.0804,1.0847,1.085,1.0907,1.0903,1.0899,1.0898,1.0933,1.0929,1.1042,1.1057,1.0962,1.0962,1.0963,0,1.056,1.0593,1.062,1.0641,1.0656,1.069,1.0711,1.0715,1.0737,1.0768,1.0793,1.0829,1.0858,1.0917,1.0931,1.0964,1.0961,1.0998,1.0966,1.0965,1.0962,1.096,1.0964,1.1004,1.1005,1.1006,1.1007,0,1.0645,1.0647,1.0678,1.0711,1.0736,1.0762,1.0787,1.0804,1.0811,1.0837,1.0874,1.0896,1.0941,1.0977,1.101,1.1024,1.1017,1.1017,1.1027,1.1027,1.1024,1.1027,1.0916,1.1014,1.1014,1.1013,1.1013,1.1012,1.0705,1.0734,1.0758,1.0793,1.0811,1.0834,1.0863,1.0874,1.0906,1.0942,1.0942,1.0983,1.1007,1.1051,1.1067,1.1099,1.1087,1.1101,1.1105,1.1109,1.1112,1.1018,1.1105,1.1105,1.1104,1.1104,1.1104,0,1.079,1.0805,1.0837,1.0871,1.0899,1.0889,1.0916,1.0939,1.0975,1.0998,1.1027,1.107,1.1104,1.112,1.1155,1.1177,1.1175,1.1186,1.1185,1.1188,1.112,1.1109,1.1187,1.1187,1.1187,1.1187,1.1187,1.1187,1.0838,1.0886,1.0891,1.0948,1.0963,1.1003,1.1019,1.104,1.1058,1.1107,1.1135,1.1145,1.1166,1.1201,1.1233,1.1236,1.125,1.1263,1.1265,1.1201,1.1193,1.1185,1.1174,1.1265,1.1265,1.133,1.1331,1.1331]},{"header":{"parameterUnit":"m.s-1","parameterCategory":1,"la1":30.2991,"la2":30.254,"lo1":-89.0895,"lo2":-89.0444,"dy":0.0017,"dx":0.0017,"nx":28,"ny":28,"refTime":"2025-12-26T09:00:00:Z","depth":0,"parameterNumber":3,"parameterNumberName":"V-component_of_WINDS"},"data":[0,0,0,0,0,0,0,0,0,0,0,0,0,0,0,0,0,0,0,0,0,0,0,0,0,0,0,0,0,0,0,0,0,0,0,0,0,0,0,0,0,0,0,0,0,0,0,0,0,0,0,0,0,0,0,0,0,0,2.9527,2.9526,0,2.9496,2.9496,2.9495,2.943,2.9428,2.9427,2.9426,2.9396,2.9397,2.9397,0,0,0,0,0,0,0,0,0,0,0,0,0,2.9531,2.9531,2.9527,2.9526,2.9526,2.9496,2.9496,2.9495,2.943,2.9428,2.9427,2.9425,2.9396,2.9397,2.9397,0,0,0,0,0,0,0,0,0,0,0,0,0,2.9517,2.9531,2.9527,2.949,2.9486,2.9496,2.9496,2.9495,2.943,2.9428,2.9426,2.9424,2.9396,2.9397,2.9397,2.9442,0,0,2.94,2.94,0,0,0,0,0,0,0,0,2.9518,2.9517,2.9496,2.9492,2.9488,2.9465,2.9486,2.9477,2.9431,2.9452,2.9426,2.9423,2.9421,2.9419,2.9418,2.944,2.9439,2.94,2.94,2.94,2.9401,0,0,0,0,0,0,0,2.9519,2.9518,2.9515,2.9495,2.9491,2.9475,2.9471,2.9484,2.9448,2.945,2.9445,2.9442,2.9419,2.9418,2.9417,2.9439,2.94,2.94,2.9401,2.9401,2.9496,2.9498,0,0,0,0,0,0,2.9525,2.952,2.9516,2.9514,2.9499,2.9477,2.9472,2.9474,2.9448,2.9442,2.9444,2.9439,2.9417,2.9416,2.9416,2.9466,2.94,2.9401,2.9401,2.9494,2.9497,2.9499,0,0,0,0,0,0,2.9526,2.9526,2.9517,2.9515,2.9513,2.9479,2.9482,2.9475,2.9474,2.9443,2.9436,2.9449,2.9416,2.9415,2.9436,2.9464,2.9401,2.9402,2.9492,2.9495,2.9498,2.9568,0,0,0,0,0,0,2.9526,2.9526,2.9542,2.9516,2.9513,2.9537,2.9483,2.9476,2.9475,2.9468,2.9447,2.9441,2.9414,2.9435,2.9436,2.9464,2.9402,2.9489,2.9493,2.9497,2.9563,2.9573,2.9582,0,0,0,0,0,2.9526,2.9564,2.9543,2.9543,2.9533,2.9539,2.9537,2.9505,2.9477,2.9494,2.9474,2.9442,2.9461,2.9438,2.9439,2.9467,2.9487,2.9492,2.9497,2.9559,2.9571,2.9582,0,0,0,0,0,0,2.9595,2.9559,2.9537,2.9566,2.9556,2.9528,2.9547,2.9519,2.9517,2.9511,2.9472,2.9467,2.9494,2.9482,2.9457,2.9509,2.9469,2.9474,2.9516,2.9527,2.9536,2.9539,2.9403,0,0,0,0,0,2.9613,2.9621,2.9589,2.9619,2.9615,2.9582,2.9584,2.9559,2.9548,2.9543,2.9525,2.9515,2.9519,2.9522,2.9524,2.956,2.9555,2.958,2.959,2.9598,2.9603,2.9622,2.9634,2.9515,2.9515,2.9514,0,0,2.9652,2.9633,2.964,2.9632,2.9621,2.9631,2.9579,2.9591,2.9598,2.9545,2.9564,2.955,2.9536,2.9566,2.9578,2.9557,2.9635,2.9604,2.961,2.9611,2.9629,2.964,2.965,2.9518,2.9517,2.9517,0,0,2.9726,2.9713,2.9736,2.9726,2.971,2.9688,2.9694,2.9669,2.9658,2.9676,2.9637,2.9645,2.9652,2.9644,2.9641,2.9712,2.9683,2.9714,2.9764,2.9783,2.9792,2.98,2.9827,2.9837,2.9719,2.9719,2.9719,0,2.9777,2.9788,2.9752,2.9766,2.9764,2.9716,2.9739,2.9731,2.9717,2.9717,2.9694,2.9702,2.9689,2.9716,2.9734,2.9732,2.9738,2.9717,2.9794,2.9802,2.9809,2.9834,2.9844,2.9723,2.9723,2.9722,2.9722,0,2.9851,2.986,2.9881,2.9868,2.9867,2.9886,2.9853,2.9858,2.9833,2.9814,2.9833,2.9816,2.9814,2.9818,2.9795,2.9842,2.983,2.9801,2.976,2.9825,2.9847,2.9857,2.9729,2.9727,2.9726,2.9725,0,0,2.997,2.9935,2.9944,2.9937,2.9916,2.9922,2.9939,2.9936,2.9941,2.9932,2.9946,2.9953,2.9926,2.9923,2.9898,2.9914,2.9973,2.9883,2.9882,2.9902,3.0026,3.0049,3.006,2.9953,2.9955,2.9956,3.0027,0,3.0041,3.0067,3.0034,3.0068,3.0077,3.0031,3.0045,3.0034,3.0017,3.0021,3.0002,3.0008,2.9971,2.9968,2.9983,2.9963,2.9998,2.9957,2.9967,2.9968,2.9973,3.0072,3.0097,3.0165,3.0036,3.0037,3.0038,0,3.0127,3.0122,3.0157,3.0133,3.0136,3.015,3.0144,3.0149,3.0136,3.0121,3.0118,3.0087,3.0103,3.0062,3.0084,3.0057,3.0059,3.005,3.0052,3.0052,3.0008,3.0077,3.0185,3.0196,3.0052,3.0051,3.005,0,3.0212,3.0214,3.0235,3.023,3.0203,3.0214,3.0203,3.0188,3.0188,3.0183,3.0183,3.0181,3.018,3.0179,3.015,3.0122,3.0175,3.0132,3.0165,3.0166,3.0179,3.0179,3.0291,3.0178,3.0178,3.0178,3.0178,0,3.0295,3.0319,3.0272,3.0286,3.0311,3.0273,3.0299,3.0283,3.027,3.0279,3.0239,3.025,3.0209,3.0215,3.0192,3.0214,3.0213,3.0203,3.0197,3.0208,3.0209,3.0209,3.0205,3.0181,3.018,3.018,3.0179,0,3.0394,3.0364,3.0384,3.0356,3.035,3.037,3.0346,3.0358,3.0337,3.035,3.0351,3.0319,3.0324,3.0294,3.0293,3.0278,3.0312,3.0297,3.0316,3.0312,3.0348,3.0345,3.0465,3.0479,3.0356,3.0357,3.0358,0,3.045,3.0467,3.0441,3.0444,3.0435,3.0441,3.0441,3.0404,3.0406,3.0392,3.0406,3.0407,3.0407,3.0417,3.0394,3.0394,3.0379,3.0421,3.0379,3.039,3.0382,3.0382,3.0384,3.0431,3.0432,3.0433,3.0434,0,3.0553,3.0538,3.0539,3.0535,3.0536,3.0531,3.0523,3.0529,3.0489,3.0493,3.0497,3.0497,3.0496,3.0499,3.0494,3.0483,3.0453,3.0447,3.0455,3.0467,3.0479,3.0474,3.0342,3.0445,3.0444,3.0443,3.0443,3.0442,3.0634,3.0647,3.063,3.0633,3.0623,3.0617,3.0627,3.0607,3.0609,3.0606,3.0584,3.0593,3.0579,3.0569,3.0561,3.0568,3.0548,3.0559,3.0562,3.0566,3.0573,3.0476,3.0567,3.0566,3.0566,3.0566,3.0565,0,3.0736,3.0723,3.0725,3.0716,3.0718,3.0688,3.0678,3.0682,3.069,3.0679,3.0679,3.0685,3.0687,3.0664,3.0663,3.0673,3.0659,3.0675,3.0674,3.0673,3.059,3.0584,3.0686,3.0686,3.0686,3.0686,3.0686,3.0686,3.0789,3.081,3.0792,3.0808,3.0794,3.0802,3.0799,3.0794,3.0785,3.0793,3.0794,3.0778,3.0763,3.0761,3.0762,3.0755,3.0757,3.0777,3.0766,3.069,3.0678,3.0667,3.0661,3.0778,3.0778,3.0848,3.0849,3.0849]}]]